Date String (YYYY-MM-DD hh:mm:ss) UTC,Instrument flags,Ambient pressure (hPa),Sample flow (lpm),Bypass flow (lpm),Sample temperature (°C),Ambient temperature (°C),ASC tube jacket temperature (°C),LED temperature (°C),Box temperature (°C),Sample RH (%),Span deviation,Mass concentration (μg/m³),Mass concentration (μg/m³),Mass concentration (μg/m³)
DateTimeUTC,F1_M11,P_M11,Q1_M11,Q2_M11,T1_M11,T2_M11,T3_M11,T4_M11,T5_M11,U1_M11,ZSPAN_M11,X2_M11,X0_M11,X1_M11
2022-06-04 17:00:00,,0821.2,5.01,0.00,29.6,28.6,00.0,38.4,31.5,24.9,0000.0,0004.15,0011.28,0003.42
2022-06-04 17:01:00,,0821.2,5.00,0.00,29.6,28.6,00.0,38.4,31.5,25.9,0000.0,0004.17,0012.31,0003.43
2022-06-04 17:02:00,,0821.2,4.99,0.00,29.7,28.7,00.0,38.5,31.6,25.8,0000.0,0004.19,0013.39,0003.45
2022-06-04 17:03:00,,0821.2,4.99,0.00,29.7,28.7,00.0,38.5,31.6,25.7,0000.0,0004.21,0013.13,0003.46
2022-06-04 17:04:00,,0821.1,5.00,0.00,29.7,28.3,00.0,38.4,31.5,23.4,0000.0,0004.22,0012.68,0003.46
2022-06-04 17:05:00,,0821.2,5.01,0.00,29.6,27.6,00.0,38.4,31.3,24.5,0000.0,0004.24,0012.44,0003.47
2022-06-04 17:06:00,,0821.2,4.99,0.00,29.6,27.3,00.0,38.3,31.2,24.6,0000.0,0004.28,0012.56,0003.48
2022-06-04 17:07:00,,0821.2,5.02,0.00,29.5,27.3,00.0,38.3,31.2,24.3,0000.0,0004.27,0012.24,0003.49
2022-06-04 17:08:00,,0821.2,5.00,0.00,29.4,27.4,00.0,38.3,31.2,22.9,0000.0,0004.25,0011.79,0003.50
2022-06-04 17:09:00,,0821.1,4.99,0.00,29.4,27.5,00.0,38.3,31.2,23.7,0000.0,0004.29,0011.29,0003.51
2022-06-04 17:10:00,,0821.2,5.01,0.00,29.4,27.7,00.0,38.3,31.2,25.1,0000.0,0004.33,0011.62,0003.52
2022-06-04 17:11:00,,0821.2,5.01,0.00,29.4,27.8,00.0,38.3,31.2,24.8,0000.0,0004.28,0011.63,0003.51
2022-06-04 17:12:00,,0821.2,4.99,0.00,29.4,27.9,00.0,38.3,31.2,23.4,0000.0,0004.26,0010.62,0003.50
2022-06-04 17:13:00,,0821.2,5.01,0.00,29.4,28.0,00.0,38.3,31.3,24.0,0000.0,0004.29,0009.45,0003.51
2022-06-04 17:14:00,,0821.2,5.00,0.00,29.4,28.1,00.0,38.3,31.3,24.6,0000.0,0004.32,0010.12,0003.51
2022-06-04 17:15:00,,0821.2,4.99,0.00,29.4,28.2,00.0,38.3,31.3,24.0,0000.0,0004.32,0010.09,0003.52
2022-06-04 17:16:00,,0821.2,5.00,0.00,29.4,28.3,00.0,38.3,31.3,24.3,0000.0,0004.34,0010.55,0003.53
2022-06-04 17:17:00,,0821.2,5.01,0.00,29.5,28.4,00.0,38.3,31.4,23.7,0000.0,0004.33,0010.58,0003.54
2022-06-04 17:18:00,,0821.2,5.00,0.00,29.5,28.5,00.0,38.3,31.4,23.8,0000.0,0004.33,0010.65,0003.55
2022-06-04 17:19:00,,0821.2,5.00,0.00,29.5,28.5,00.0,38.3,31.4,23.8,0000.0,0004.31,0010.55,0003.56
2022-06-04 17:20:00,,0821.2,4.98,0.00,29.5,28.6,00.0,38.3,31.5,23.8,0000.0,0004.29,0010.73,0003.57
2022-06-04 17:21:00,,0821.2,5.00,0.00,29.6,28.6,00.0,38.4,31.5,24.8,0000.0,0004.28,0010.29,0003.58
2022-06-04 17:22:00,,0821.2,5.00,0.00,29.6,28.3,00.0,38.3,31.4,24.8,0000.0,0004.31,0010.05,0003.60
2022-06-04 17:23:00,,0821.2,5.00,0.00,29.5,27.5,00.0,38.3,31.2,25.2,0000.0,0004.37,0010.57,0003.62
2022-06-04 17:24:00,,0821.2,4.99,0.00,29.4,27.1,00.0,38.2,31.1,24.9,0000.0,0004.40,0011.18,0003.64
2022-06-04 17:25:00,,0821.2,5.01,0.00,29.4,27.1,00.0,38.2,31.0,24.9,0000.0,0004.39,0010.37,0003.65
2022-06-04 17:26:00,,0821.2,4.98,0.00,29.3,27.2,00.0,38.2,31.0,25.1,0000.0,0004.42,0010.50,0003.67
2022-06-04 17:27:00,,0821.2,5.01,0.00,29.3,27.4,00.0,38.2,31.1,25.6,0000.0,0004.44,0010.17,0003.69
2022-06-04 17:28:00,,0821.2,5.00,0.00,29.3,27.5,00.0,38.2,31.1,25.9,0000.0,0004.46,0009.97,0003.71
2022-06-04 17:29:00,,0821.2,4.99,0.00,29.3,27.7,00.0,38.2,31.1,25.7,0000.0,0004.50,0009.93,0003.74
2022-06-04 17:30:00,,0821.1,5.00,0.00,29.3,27.8,00.0,38.2,31.1,26.4,0000.0,0004.54,0010.03,0003.75
2022-06-04 17:31:00,,0821.1,5.00,0.00,29.3,27.9,00.0,38.2,31.2,25.4,0000.0,0004.57,0009.96,0003.76
2022-06-04 17:32:00,,0821.1,4.99,0.00,29.3,28.0,00.0,38.2,31.2,27.1,0000.0,0004.58,0009.90,0003.77
2022-06-04 17:33:00,,0821.1,5.00,0.00,29.3,28.2,00.0,38.2,31.2,26.4,0000.0,0004.56,0009.89,0003.77
2022-06-04 17:34:00,,0821.2,5.02,0.00,29.3,28.2,00.0,38.2,31.3,25.0,0000.0,0004.53,0010.23,0003.78
2022-06-04 17:35:00,,0821.1,5.01,0.00,29.4,28.3,00.0,38.2,31.3,24.6,0000.0,0004.50,0009.76,0003.79
2022-06-04 17:36:00,,0821.1,4.99,0.00,29.4,28.4,00.0,38.2,31.4,25.5,0000.0,0004.52,0009.65,0003.79
2022-06-04 17:37:00,,0821.1,5.00,0.00,29.4,28.5,00.0,38.2,31.4,25.0,0000.0,0004.49,0009.75,0003.79
2022-06-04 17:38:00,,0821.1,4.99,0.00,29.5,28.5,00.0,38.2,31.4,23.9,0000.0,0004.51,0010.18,0003.80
2022-06-04 17:39:00,,0821.1,5.01,0.00,29.5,28.5,00.0,38.3,31.4,24.4,0000.0,0004.48,0010.44,0003.79
2022-06-04 17:40:00,,0821.1,4.99,0.00,29.5,27.9,00.0,38.2,31.3,26.4,0000.0,0004.47,0010.80,0003.78
2022-06-04 17:41:00,,0821.1,5.01,0.00,29.4,27.3,00.0,38.1,31.1,26.5,0000.0,0004.47,0010.83,0003.79
2022-06-04 17:42:00,,0821.1,5.00,0.00,29.4,27.1,00.0,38.1,31.0,25.2,0000.0,0004.46,0010.81,0003.79
2022-06-04 17:43:00,,0821.1,5.00,0.00,29.3,27.2,00.0,38.1,31.0,26.3,0000.0,0004.45,0010.73,0003.79
2022-06-04 17:44:00,,0821.1,5.00,0.00,29.3,27.3,00.0,38.1,31.0,25.7,0000.0,0004.48,0010.82,0003.80
2022-06-04 17:45:00,,0821.1,4.99,0.00,29.2,27.4,00.0,38.1,31.0,25.5,0000.0,0004.52,0010.45,0003.80
2022-06-04 17:46:00,,0821.1,5.01,0.00,29.2,27.6,00.0,38.1,31.1,26.1,0000.0,0004.54,0010.06,0003.80
2022-06-04 17:47:00,,0821.1,4.99,0.00,29.2,27.7,00.0,38.1,31.1,26.0,0000.0,0004.56,0010.21,0003.81
2022-06-04 17:48:00,,0821.2,5.00,0.00,29.3,27.9,00.0,38.1,31.1,26.2,0000.0,0004.54,0009.78,0003.81
2022-06-04 17:49:00,,0821.1,5.00,0.00,29.3,28.0,00.0,38.1,31.2,26.6,0000.0,0004.54,0009.41,0003.81
2022-06-04 17:50:00,,0821.1,5.01,0.00,29.3,28.1,00.0,38.1,31.2,25.2,0000.0,0004.57,0009.10,0003.83
2022-06-04 17:51:00,,0821.1,5.01,0.00,29.3,28.2,00.0,38.1,31.3,25.6,0000.0,0004.63,0010.28,0003.84
2022-06-04 17:52:00,,0821.1,5.00,0.00,29.3,28.3,00.0,38.1,31.3,26.7,0000.0,0004.63,0010.77,0003.83
2022-06-04 17:53:00,,0821.1,5.00,0.00,29.4,28.4,00.0,38.2,31.3,23.3,0000.0,0004.60,0011.11,0003.81
2022-06-04 17:54:00,,0821.1,5.00,0.00,29.4,28.5,00.0,38.2,31.4,24.4,0000.0,0004.54,0011.16,0003.76
2022-06-04 17:55:00,,0821.1,4.99,0.00,29.4,28.5,00.0,38.2,31.4,25.2,0000.0,0004.51,0011.02,0003.73
2022-06-04 17:56:00,,0821.1,5.01,0.00,29.5,28.3,00.0,38.2,31.3,25.3,0000.0,0004.47,0010.87,0003.73
2022-06-04 17:57:00,,0821.1,5.00,0.00,29.4,27.6,00.0,38.1,31.2,25.2,0000.0,0004.48,0010.91,0003.73
2022-06-04 17:58:00,,0821.1,4.99,0.00,29.3,27.2,00.0,38.1,31.0,24.9,0000.0,0004.44,0010.80,0003.70
2022-06-04 17:59:00,,0821.1,5.01,0.00,29.3,27.1,00.0,38.1,31.0,21.2,0000.0,0004.40,0010.75,0003.65
